Flag for Martinique Weather past 2 weeks in Fort-de-France, Martinique

Now
82 °F

Passing clouds.


Feels Like: 89 °F
Forecast: 80 / 89 °F
Wind: 7 mph from Northeast

Location: Le Lamentin Airport

Current Time: Aug 30, 2015 at 9:15:55 PM

Latest Report: Aug 30, 2015 at 8:30 PM


Visibility: N/A

Pressure: 29.98 "Hg

Humidity: 79%

Dew point: 75 °F

Location of Fort-de-FranceLocation

Historic Weather in Fort-de-France — Graph

°F

Fort-de-France temperature yesterday

Maximum temperature yesterday: 88 °F (at 12:00 PM)
Minimum temperature yesterday: 79 °F (at 3:30 AM)
Average temperature yesterday: 83 °F

Past Weeks' High & Low Weather Summary

 TemperatureHumidityPressure
High91 °F (Aug 24, 1:00 PM)94% (Aug 17, 6:00 AM)30.04 "Hg (Aug 17, 6:00 AM)
Low73 °F (Aug 17, 6:00 AM)49% (Aug 16, 3:00 PM)29.77 "Hg (Aug 27, 3:00 AM)
Average83 °F76%29.93 "Hg
* Reported Aug 15 8:00 PM — Aug 30 8:00 PM, Fort-de-France, Weather by CustomWeather, © 2015

Note: Actual official high and low records may vary slightly from our data, if they occured in-between our weather recording intervals... More about our weather records

Advertising

Fort-de-France weather history for previous 24 hours

 ConditionsComfort  
Time TempWeatherWind HumidityBarometerVisibility
8:00 PM
Sun, Aug 30
82 °FPassing clouds.7 mph74%29.98 "HgN/A
7:30 PM82 °FClear.10 mph74%29.98 "HgN/A
7:00 PM82 °FPassing clouds.7 mph79%29.98 "HgN/A
6:30 PM82 °FPassing clouds.9 mph79%29.98 "HgN/A
5:30 PM84 °FPassing clouds.13 mph74%29.95 "HgN/A
5:00 PM86 °FClear.13 mph70%29.95 "HgN/A
4:30 PM86 °FPassing clouds.14 mph70%29.95 "HgN/A
4:00 PM88 °FPassing clouds.14 mph66%29.95 "HgN/A
3:30 PM88 °FScattered clouds.15 mph66%29.95 "HgN/A
3:00 PM88 °FScattered clouds.16 mph66%29.95 "HgN/A
2:30 PM90 °FScattered clouds.16 mph63%29.95 "HgN/A
2:00 PM90 °FScattered clouds.16 mph63%29.98 "HgN/A
1:30 PM90 °FScattered clouds.18 mph63%29.98 "HgN/A
1:00 PM90 °FScattered clouds.18 mph67%29.98 "HgN/A
12:30 PM90 °FBroken clouds.17 mph67%30.01 "HgN/A
12:00 PM90 °FPartly sunny.18 mph63%30.01 "HgN/A
11:30 AM88 °FPartly sunny.16 mph66%30.01 "HgN/A
11:00 AM90 °FScattered clouds.17 mph63%30.01 "HgN/A
10:30 AM88 °FPartly sunny.15 mph70%30.01 "HgN/A
10:00 AM88 °FPartly sunny.15 mph66%30.01 "HgN/A
9:30 AM86 °FPartly sunny.14 mph70%29.98 "HgN/A
9:00 AM88 °FPartly sunny.16 mph66%29.98 "HgN/A
8:30 AM86 °FBroken clouds.16 mph70%29.98 "HgN/A
8:00 AM84 °FPartly sunny.12 mph74%29.98 "HgN/A
7:30 AM82 °FScattered clouds.10 mph84%29.95 "HgN/A
7:00 AM82 °FScattered clouds.12 mph84%29.95 "HgN/A
6:30 AM82 °FScattered clouds.13 mph84%29.95 "HgN/A
6:00 AM81 °FScattered clouds.9 mph84%29.95 "HgN/A
5:30 AM81 °FPassing clouds.9 mph84%29.92 "HgN/A
5:00 AM82 °FPartly cloudy.8 mph84%29.92 "HgN/A
4:30 AM81 °FPassing clouds.9 mph84%29.92 "HgN/A
4:00 AM81 °FPartly cloudy.7 mph89%29.92 "HgN/A
3:30 AM81 °FPassing clouds.10 mph89%29.92 "HgN/A
3:00 AM82 °FPartly cloudy.12 mph84%29.92 "HgN/A
2:30 AM82 °FPartly cloudy.12 mph84%29.92 "HgN/A
2:00 AM82 °FPassing clouds.9 mph84%29.95 "HgN/A
1:30 AM82 °FPartly cloudy.12 mph84%29.95 "HgN/A
1:00 AM82 °FPartly cloudy.12 mph84%29.95 "HgN/A
12:00 AM82 °FPassing clouds.14 mph84%29.95 "HgN/A
11:30 PM
Sat, Aug 29
82 °FPassing clouds.12 mph84%29.98 "HgN/A
11:00 PM82 °FPassing clouds.15 mph84%29.98 "HgN/A
10:30 PM82 °FPartly cloudy.12 mph84%29.98 "HgN/A
10:00 PM82 °FPartly cloudy.12 mph84%29.98 "HgN/A
9:30 PM82 °FPartly cloudy.14 mph84%29.98 "HgN/A
9:00 PM82 °FPartly cloudy.13 mph84%29.95 "HgN/A
Weather by CustomWeather, © 2015

See weather overviewHow to use our weather pages